星链-30528 (STARLINK-30528 )

导读

STARLINK-30528是美国SpaceX公司星链星座中的一颗低轨互联网通信卫星,于2023年9月30日发射升空。作为星链网络的组成部分,它运行在近地轨道,依托相控阵天线、激光通信等技术,为全球提供低延迟宽带互联网服务,覆盖偏远地区、航空、海洋等场景,助力星链全球互联网络的搭建,目前状态稳定,是星链大规模组网中的重要节点。

基本信息
目录编号:
57967
目录名称:
STARLINK-30528
国际标识:
2023-151D
轨道中心:
EARTH
卫星名称:
星链-30528
卫星全名:
星链-30528 (STARLINK-30528 )
卫星状态:
在轨 (已飞行991 天)
发射日期:
2023-09-30 UTC
国别 :
美国 (US)
星等 :
--
轨道信息
数据来源 国际轨道数据 AOE轨道数据
星历时间 2026-06-17T12:14:38+0800
12小时前
查看轨道信息
2026-06-17T02:00:00+0800
22小时前
查看轨道信息
半长轴 6861.202km 6861.188km
偏心率 0.0001525 0.0001187
轨道倾角 43.002° 42.999°
近地点辐角 270.159° 222.048°
升交点赤经 133.986° 136.397°
平近点角 89.909° 308.062°
近地点 482.018km 482.236km
远地点 484.112km 483.866km
周期 94.267分钟 94.267分钟
每日圈数 15.275748 15.275796
详细信息
固有亮度:
5
最大亮度:
0.3
卫星平台:
Starlink v2.0 mini
覆盖范围:
全球
运营商:
太空探索技术公司
运营商所在国:
美国
制造商(研发单位):
太空探索技术公司
制造商所在国:
美国
使用方式:
暂无
卫星简介
星链(Starlink)计划是由太空探索技术公司(SpaceX)提出的一个巨型低轨卫星互联网星座项目,计划在2019年至2024年间在太空搭建由约1.2万颗卫星组成的“星链”网络,其中1584颗将部署在地球上空550千米处的近地轨道,并从2020年开始工作。该卫星仍在工作。
2D轨道图
3D轨道图
轨道高度分析图
轨道倾角分析图
轨道综合分析图
查看轨道综合分析图